Weather History for KPBF - November, 2011

Change the Weather History Date:

Saturday, November 26, 2011

  Actual Average Record
Temperature  
Mean Temperature 59 °F 49 °F  
Max Temperature 68 °F 59 °F 84 °F (1964)
Min Temperature 49 °F 39 °F 23 °F (1928)
Degree Days  
Heating Degree Days 6 16  
Month to date heating degree days 221 301  
Since 1 July heating degree days 369 438  
Cooling Degree Days 0 0  
Month to date cooling degree days 33 10  
Year to date cooling degree days 2503 2129  
Growing Degree Days 8 (Base 50)    
Moisture  
Dew Point 57 °F    
Average Humidity 91    
Maximum Humidity 100    
Minimum Humidity 81    
Precipitation  
Precipitation 0.84 in 0.17 in 3.58 in (1988)
Month to date precipitation 5.90 4.12  
Year to date precipitation 39.69 45.00  
Snow  
Snow 0.00 in 0.00 in - ()
Month to date snowfall 0.0 0.0  
Since 1 July snowfall 0.0 0.0  
Since 1 September snowfall 0.0 0.0  
Snow Depth 0.00 in    
Sea Level Pressure  
Sea Level Pressure 29.93 in    
Wind  
Wind Speed 9 mph (South)    
Max Wind Speed 21 mph    
Max Gust Speed 28 mph    
Visibility 8 miles    
Events Rain    
T = Trace of Precipitation, MM = Missing Value Source: NWS Daily Summary

Daily Weather History Graph

Daily Weather History Graph

Search for Another Location

Airport or City:

Trip Planner

Search our weather history database for the weather conditions in past years. The results will help you decide how hot, cold, wet, or windy it might be!

Date:

Astronomy

Nov. 26, 2011 Rise Set
Actual Time 6:50 AM CST 4:59 PM CST
Civil Twilight 6:23 AM CST 5:26 PM CST
Nautical Twilight 5:52 AM CST 5:57 PM CST
Astronomical Twilight 5:22 AM CST 6:27 PM CST
Moon 8:19 AM CST (11/26) 6:32 PM CST (11/26)
Length of Visible Light 11h 02m
Length of Day
10h 08m
Waxing Crescent, 3% of the Moon is Illuminated
Nov 26
Waxing Crescent
Dec 2
First Quarter
Dec 10
Full
Dec 17
Last Quarter
Dec 24
New

Hourly Weather History & Observations

Time (CST) Temp. Dew Point Humidity Pressure Visibility Wind Dir Wind Speed Gust Speed Precip Events Conditions
12:53 AM 59.0 °F 55.0 °F 87% 30.02 in 10.0 mi SSE 6.9 mph - N/A   Overcast
1:53 AM 61.0 °F 55.9 °F 83% 30.01 in 10.0 mi SE 11.5 mph - N/A   Overcast
2:53 AM 61.0 °F 57.0 °F 87% 29.99 in 10.0 mi SSE 10.4 mph - N/A   Overcast
3:53 AM 60.1 °F 57.0 °F 90% 29.97 in 10.0 mi SE 15.0 mph - N/A   Mostly Cloudy
4:53 AM 61.0 °F 57.9 °F 90% 29.97 in 10.0 mi SSE 10.4 mph - N/A   Overcast
5:53 AM 60.1 °F 57.0 °F 90% 29.96 in 10.0 mi SSE 9.2 mph - N/A   Overcast
6:53 AM 60.1 °F 57.9 °F 93% 29.97 in 10.0 mi SSE 10.4 mph - N/A   Overcast
7:53 AM 61.0 °F 57.9 °F 90% 29.97 in 10.0 mi SSE 10.4 mph - N/A   Overcast
8:53 AM 62.6 °F 59.0 °F 88% 29.97 in 10.0 mi South 10.4 mph - N/A   Overcast
9:53 AM 66.0 °F 60.1 °F 81% 29.95 in 10.0 mi South 13.8 mph 19.6 mph N/A   Overcast
10:06 AM 66.2 °F 60.8 °F 83% 29.95 in 10.0 mi South 15.0 mph - N/A   Overcast
10:53 AM 66.0 °F 61.0 °F 84% 29.93 in 10.0 mi South 13.8 mph - N/A   Overcast
11:53 AM 66.9 °F 62.1 °F 84% 29.89 in 10.0 mi South 15.0 mph - N/A   Overcast
12:53 PM 66.9 °F 62.1 °F 84% 29.87 in 10.0 mi South 10.4 mph - 0.00 in Rain Light Rain
1:23 PM 64.4 °F 62.6 °F 94% 29.88 in 1.8 mi West 12.7 mph - 0.12 in Rain Heavy Rain
1:34 PM 62.6 °F 59.0 °F 88% 29.89 in 2.0 mi SSW 11.5 mph - N/A Rain Rain
1:53 PM 61.0 °F 59.0 °F 93% 29.89 in 3.0 mi WSW 5.8 mph - 0.25 in Rain Rain
2:02 PM 60.8 °F 60.8 °F 100% 29.88 in 2.5 mi West 4.6 mph - 0.04 in Rain Heavy Rain
2:19 PM 60.8 °F 59.0 °F 94% 29.86 in 4.0 mi West 5.8 mph - 0.10 in Rain Rain
2:53 PM 61.0 °F 59.0 °F 93% 29.86 in 3.0 mi Calm Calm - 0.20 in Rain Rain
3:53 PM 60.1 °F 57.9 °F 93% 29.87 in 5.0 mi Calm Calm - 0.12 in Rain Light Rain
4:53 PM 59.0 °F 59.0 °F 100% 29.88 in 10.0 mi Calm Calm - 0.02 in Rain Light Rain
5:53 PM 59.0 °F 57.2 °F 94% 29.88 in 10.0 mi ESE 4.6 mph - N/A Rain Light Rain
6:48 PM 59.0 °F 57.2 °F 94% 29.90 in 10.0 mi SSE 5.8 mph - 0.02 in Rain Light Rain
6:53 PM 59.0 °F 57.9 °F 96% 29.90 in 10.0 mi SSE 4.6 mph - 0.02 in Rain Light Rain
7:26 PM 59.0 °F 57.2 °F 94% 29.90 in 10.0 mi SSE 5.8 mph - 0.05 in Rain Light Rain
7:34 PM 59.0 °F 57.2 °F 94% 29.90 in 10.0 mi SSE 5.8 mph - 0.05 in Rain Light Rain
7:53 PM 59.0 °F 57.9 °F 96% 29.89 in 10.0 mi Calm Calm - 0.07 in Rain Light Rain
8:14 PM 59.0 °F 57.2 °F 94% 29.88 in 8.0 mi Calm Calm - 0.02 in Rain Light Rain
8:53 PM 59.0 °F 57.9 °F 96% 29.90 in 10.0 mi SSE 6.9 mph - 0.03 in   Overcast
9:53 PM 57.2 °F 55.4 °F 94% 29.93 in 4.0 mi NNW 17.3 mph 24.2 mph N/A Rain Heavy Rain
9:57 PM 55.4 °F 53.6 °F 94% 29.94 in 2.5 mi NNW 15.0 mph 24.2 mph 0.02 in Rain Heavy Rain
9:59 PM 55.4 °F 53.6 °F 94% 29.94 in 3.0 mi NW 13.8 mph 24.2 mph 0.02 in Rain Rain
10:03 PM 55.4 °F 53.6 °F 94% 29.94 in 3.0 mi NNW 13.8 mph 21.9 mph 0.04 in Rain Heavy Rain
10:13 PM 55.4 °F 53.6 °F 94% 29.93 in 6.0 mi NW 18.4 mph - 0.04 in Rain Light Rain
10:53 PM 53.1 °F 52.0 °F 96% 29.96 in 10.0 mi NNW 17.3 mph 24.2 mph 0.05 in   Overcast
11:16 PM 51.8 °F 50.0 °F 94% 29.97 in 10.0 mi North 17.3 mph 26.5 mph N/A   Overcast
11:37 PM 50.0 °F 48.2 °F 94% 29.97 in 10.0 mi North 15.0 mph 23.0 mph N/A   Overcast
11:53 PM 48.9 °F 48.0 °F 97% 29.97 in 10.0 mi North 18.4 mph 25.3 mph 0.00 in   Overcast